GWILZ YAYE-YBCG

Flight info

Callsign GWILZ
Flight time 2h 35m
Altitude 47000
Route RURAP Y69 VIPAR Y93 AS T11 ROM G326 BN J208 SCOTT P880 LAMSI
Aircraft C750/M-SBDE3FGHRWXY/S

Departure

Time 2026-04-29 16:30
Airport Ayers Rock Connellan Airport (YAYE)

Arrival

Time 2026-04-29 19:05
Airport Gold Coast Airport (YBCG)
Time Latitude Longitude Altitude Speed Heading
2026-04-29 16:16 -25.18946 130.97525 1629 ft 0 kts 130°
2026-04-29 16:25 -25.18951 130.97532 1632 ft 3 kts 130°
2026-04-29 16:25 -25.18960 130.97564 1631 ft 6 kts 74°
2026-04-29 16:25 -25.18928 130.97606 1631 ft 6 kts 54°
2026-04-29 16:26 -25.18939 130.97653 1632 ft 8 kts 123°
2026-04-29 16:26 -25.18952 130.97710 1631 ft 9 kts 63°
2026-04-29 16:26 -25.18900 130.97762 1631 ft 10 kts 39°
2026-04-29 16:26 -25.18851 130.97808 1632 ft 9 kts 40°
2026-04-29 16:27 -25.18808 130.97846 1632 ft 7 kts 38°
2026-04-29 16:27 -25.18769 130.97879 1631 ft 7 kts 37°
2026-04-29 16:27 -25.18747 130.97915 1631 ft 5 kts 98°
2026-04-29 16:27 -25.18780 130.97967 1633 ft 12 kts 131°
2026-04-29 16:28 -25.18837 130.98042 1630 ft 12 kts 129°
2026-04-29 16:28 -25.18869 130.98096 1631 ft 4 kts 114°
2026-04-29 16:28 -25.18882 130.98095 1632 ft 1 kts 242°
2026-04-29 16:28 -25.18875 130.98090 1631 ft 3 kts 332°
2026-04-29 16:29 -25.18855 130.98064 1631 ft 3 kts 308°
2026-04-29 16:29 -25.18855 130.98063 1631 ft 0 kts 308°
2026-04-29 16:29 -25.18852 130.98060 1631 ft 7 kts 309°
2026-04-29 16:30 -25.18612 130.97741 1632 ft 109 kts 309°
2026-04-29 16:30 -25.17973 130.96887 1747 ft 160 kts 311°
2026-04-29 16:30 -25.17256 130.95939 2296 ft 166 kts 310°
2026-04-29 16:30 -25.16450 130.94963 2753 ft 183 kts 326°
2026-04-29 16:31 -25.15157 130.94623 2842 ft 209 kts
2026-04-29 16:31 -25.13760 130.95177 3265 ft 223 kts 35°
2026-04-29 16:31 -25.12545 130.96378 3746 ft 247 kts 46°
2026-04-29 16:31 -25.11287 130.97710 4620 ft 252 kts 43°
2026-04-29 16:32 -25.09947 130.98980 5517 ft 257 kts 40°
2026-04-29 16:32 -25.09098 130.99911 5966 ft 266 kts 52°
2026-04-29 16:32 -25.08528 131.02531 7052 ft 274 kts 91°
2026-04-29 16:32 -25.08805 131.04647 8006 ft 277 kts 98°
2026-04-29 16:33 -25.09332 131.08911 9852 ft 288 kts 95°
2026-04-29 16:33 -25.09535 131.11144 10496 ft 300 kts 95°
2026-04-29 16:33 -25.09786 131.13530 10744 ft 324 kts 96°
2026-04-29 16:34 -25.10065 131.16008 11500 ft 326 kts 96°
2026-04-29 16:34 -25.10332 131.18514 12210 ft 332 kts 96°
2026-04-29 16:34 -25.10594 131.21068 12913 ft 338 kts 96°
2026-04-29 16:34 -25.10865 131.23671 13611 ft 345 kts 96°
2026-04-29 16:35 -25.11146 131.26318 14256 ft 350 kts 97°
2026-04-29 16:35 -25.11430 131.29009 14892 ft 355 kts 97°
2026-04-29 16:35 -25.11715 131.31743 15516 ft 361 kts 97°
2026-04-29 16:35 -25.12000 131.34482 16142 ft 366 kts 97°
2026-04-29 16:36 -25.12293 131.37288 16795 ft 371 kts 97°
2026-04-29 16:36 -25.12589 131.40133 17447 ft 376 kts 97°
2026-04-29 16:36 -25.12890 131.43029 18132 ft 382 kts 97°
2026-04-29 16:36 -25.13194 131.45965 18754 ft 388 kts 97°
2026-04-29 16:37 -25.13498 131.48904 19366 ft 392 kts 97°
2026-04-29 16:37 -25.13809 131.51916 19991 ft 397 kts 97°
2026-04-29 16:37 -25.14124 131.54976 20626 ft 403 kts 97°
2026-04-29 16:37 -25.14335 131.57022 21053 ft 406 kts 97°
2026-04-29 16:38 -25.14764 131.61203 21900 ft 413 kts 98°
2026-04-29 16:38 -25.15089 131.64372 22548 ft 418 kts 98°
2026-04-29 16:38 -25.15417 131.67583 23189 ft 424 kts 98°
2026-04-29 16:38 -25.15745 131.70802 23797 ft 429 kts 98°
2026-04-29 16:39 -25.16079 131.74088 24361 ft 433 kts 98°
2026-04-29 16:39 -25.16306 131.76319 24757 ft 435 kts 98°
2026-04-29 16:39 -25.16644 131.79656 25336 ft 439 kts 98°
2026-04-29 16:39 -25.16984 131.83019 25908 ft 443 kts 98°
2026-04-29 16:40 -25.17438 131.87521 26663 ft 448 kts 98°
2026-04-29 16:40 -25.17671 131.89836 27042 ft 450 kts 98°
2026-04-29 16:40 -25.18018 131.93291 27605 ft 454 kts 98°
2026-04-29 16:40 -25.18366 131.96768 28163 ft 458 kts 98°
2026-04-29 16:41 -25.18717 132.00278 28719 ft 462 kts 98°
2026-04-29 16:41 -25.19071 132.03829 29262 ft 466 kts 98°
2026-04-29 16:41 -25.19420 132.07342 29792 ft 469 kts 98°
2026-04-29 16:41 -25.19778 132.10945 30303 ft 473 kts 98°
2026-04-29 16:42 -25.20137 132.14575 30731 ft 477 kts 98°
2026-04-29 16:42 -25.20498 132.18238 31156 ft 481 kts 98°
2026-04-29 16:42 -25.20862 132.21930 31590 ft 485 kts 98°
2026-04-29 16:42 -25.21226 132.25645 32010 ft 489 kts 98°
2026-04-29 16:43 -25.21594 132.29395 32430 ft 492 kts 98°
2026-04-29 16:43 -25.21962 132.33167 32853 ft 496 kts 98°
2026-04-29 16:43 -25.22332 132.36969 33278 ft 499 kts 98°
2026-04-29 16:43 -25.22704 132.40792 33712 ft 502 kts 98°
2026-04-29 16:44 -25.23078 132.44648 34129 ft 506 kts 98°
2026-04-29 16:44 -25.23447 132.48474 34502 ft 509 kts 98°
2026-04-29 16:44 -25.23821 132.52362 34997 ft 508 kts 98°
2026-04-29 16:44 -25.24192 132.56234 35559 ft 506 kts 98°
2026-04-29 16:45 -25.24564 132.60099 36066 ft 505 kts 98°
2026-04-29 16:45 -25.24933 132.63957 36565 ft 505 kts 98°
2026-04-29 16:45 -25.25301 132.67826 37087 ft 505 kts 98°
2026-04-29 16:45 -25.25666 132.71670 37609 ft 504 kts 98°
2026-04-29 16:46 -25.26031 132.75521 38133 ft 504 kts 99°
2026-04-29 16:46 -25.26396 132.79382 38665 ft 504 kts 99°
2026-04-29 16:46 -25.26759 132.83231 39126 ft 503 kts 99°
2026-04-29 16:46 -25.27120 132.87077 39555 ft 503 kts 98°
2026-04-29 16:47 -25.27481 132.90923 39985 ft 503 kts 98°
2026-04-29 16:47 -25.27840 132.94767 40415 ft 502 kts 98°
2026-04-29 16:47 -25.28193 132.98554 40844 ft 502 kts 98°
2026-04-29 16:47 -25.28554 133.02441 41290 ft 502 kts 98°
2026-04-29 16:48 -25.28909 133.06270 41723 ft 501 kts 98°
2026-04-29 16:48 -25.29258 133.10053 42134 ft 501 kts 98°
2026-04-29 16:48 -25.29611 133.13889 42546 ft 501 kts 97°
2026-04-29 16:48 -25.29963 133.17720 42948 ft 501 kts 97°
2026-04-29 16:49 -25.30314 133.21552 43340 ft 501 kts 97°
2026-04-29 16:49 -25.30664 133.25376 43716 ft 500 kts 97°
2026-04-29 16:49 -25.31012 133.29209 44099 ft 500 kts 97°
2026-04-29 16:49 -25.31360 133.33035 44443 ft 500 kts 97°
2026-04-29 16:50 -25.31707 133.36863 44789 ft 500 kts 97°
2026-04-29 16:50 -25.32051 133.40680 45074 ft 499 kts 97°
2026-04-29 16:50 -25.32745 133.48394 45157 ft 511 kts 97°
2026-04-29 16:51 -25.33451 133.56304 45180 ft 524 kts 96°
2026-04-29 16:51 -25.34172 133.64423 45183 ft 537 kts 96°
2026-04-29 16:52 -25.34905 133.72732 45187 ft 547 kts 96°
2026-04-29 16:52 -25.35636 133.81071 45178 ft 548 kts 96°
2026-04-29 16:53 -25.36365 133.89442 45173 ft 546 kts 96°
2026-04-29 16:53 -25.37089 133.97809 45171 ft 547 kts 96°
2026-04-29 16:54 -25.37808 134.06186 45173 ft 547 kts 96°
2026-04-29 16:54 -25.38523 134.14560 45172 ft 547 kts 96°
2026-04-29 16:55 -25.39233 134.22932 45176 ft 546 kts 96°
2026-04-29 16:55 -25.39938 134.31302 45173 ft 546 kts 96°
2026-04-29 16:56 -25.40637 134.39672 45174 ft 546 kts 96°
2026-04-29 16:56 -25.41332 134.48036 45176 ft 546 kts 96°
2026-04-29 16:57 -25.42018 134.56352 45169 ft 546 kts 96°
2026-04-29 16:57 -25.42704 134.64733 45173 ft 546 kts 96°
2026-04-29 16:58 -25.43385 134.73101 45175 ft 546 kts 96°
2026-04-29 16:58 -25.44060 134.81467 45173 ft 546 kts 96°
2026-04-29 16:59 -25.44731 134.89838 45170 ft 546 kts 96°
2026-04-29 16:59 -25.45398 134.98214 45169 ft 546 kts 96°
2026-04-29 17:00 -25.46059 135.06580 45169 ft 546 kts 95°
2026-04-29 17:00 -25.46715 135.14941 45168 ft 546 kts 95°
2026-04-29 17:01 -25.47362 135.23258 45167 ft 546 kts 95°
2026-04-29 17:01 -25.48009 135.31618 45166 ft 545 kts 95°
2026-04-29 17:02 -25.48650 135.39979 45165 ft 545 kts 95°
2026-04-29 17:02 -25.49288 135.48354 45166 ft 545 kts 95°
2026-04-29 17:03 -25.49919 135.56713 45164 ft 545 kts 95°
2026-04-29 17:03 -25.50546 135.65071 45162 ft 545 kts 95°
2026-04-29 17:04 -25.51169 135.73444 45168 ft 545 kts 95°
2026-04-29 17:04 -25.51782 135.81746 45159 ft 545 kts 95°
2026-04-29 17:05 -25.52395 135.90105 45156 ft 545 kts 95°
2026-04-29 17:05 -25.53003 135.98474 45158 ft 546 kts 95°
2026-04-29 17:06 -25.53609 136.06872 45166 ft 547 kts 95°
2026-04-29 17:06 -25.54209 136.15262 45160 ft 546 kts 95°
2026-04-29 17:07 -25.54805 136.23656 45159 ft 546 kts 95°
2026-04-29 17:07 -25.55395 136.32036 45161 ft 546 kts 95°
2026-04-29 17:08 -25.55981 136.40429 45163 ft 546 kts 95°
2026-04-29 17:08 -25.56561 136.48804 45165 ft 546 kts 95°
2026-04-29 17:09 -25.57136 136.57184 45164 ft 546 kts 94°
2026-04-29 17:09 -25.57706 136.65560 45158 ft 545 kts 94°
2026-04-29 17:10 -25.58272 136.73940 45156 ft 545 kts 94°
2026-04-29 17:10 -25.58829 136.82254 45157 ft 544 kts 94°
2026-04-29 17:11 -25.59384 136.90620 45159 ft 544 kts 94°
2026-04-29 17:11 -25.59934 136.98986 45158 ft 544 kts 94°
2026-04-29 17:12 -25.60480 137.07353 45153 ft 544 kts 94°
2026-04-29 17:12 -25.60929 137.14304 45159 ft 544 kts 94°
2026-04-29 17:13 -25.61557 137.24087 45153 ft 545 kts 94°
2026-04-29 17:13 -25.62088 137.32452 45155 ft 544 kts 94°
2026-04-29 17:14 -25.62615 137.40834 45153 ft 544 kts 94°
2026-04-29 17:14 -25.63134 137.49151 45153 ft 544 kts 94°
2026-04-29 17:15 -25.63651 137.57528 45149 ft 544 kts 94°
2026-04-29 17:15 -25.64162 137.65886 45146 ft 544 kts 94°
2026-04-29 17:16 -25.64669 137.74246 45149 ft 544 kts 94°
2026-04-29 17:16 -25.65171 137.82610 45152 ft 543 kts 94°
2026-04-29 17:17 -25.65669 137.90972 45154 ft 543 kts 94°
2026-04-29 17:17 -25.66161 137.99335 45157 ft 543 kts 94°
2026-04-29 17:18 -25.66646 138.07643 45158 ft 543 kts 93°
2026-04-29 17:18 -25.67128 138.15996 45159 ft 543 kts 93°
2026-04-29 17:19 -25.67606 138.24357 45160 ft 543 kts 93°
2026-04-29 17:19 -25.68079 138.32718 45161 ft 543 kts 93°
2026-04-29 17:20 -25.68548 138.41083 45157 ft 543 kts 93°
2026-04-29 17:20 -25.69011 138.49434 45159 ft 543 kts 93°
2026-04-29 17:21 -25.69471 138.57803 45160 ft 543 kts 93°
2026-04-29 17:21 -25.69921 138.66113 45159 ft 543 kts 93°
2026-04-29 17:22 -25.70372 138.74490 45159 ft 543 kts 93°
2026-04-29 17:22 -25.70815 138.82838 45163 ft 543 kts 93°
2026-04-29 17:23 -25.71256 138.91207 45166 ft 543 kts 93°
2026-04-29 17:23 -25.71690 138.99561 45162 ft 543 kts 93°
2026-04-29 17:24 -25.72120 139.07914 45162 ft 543 kts 93°
2026-04-29 17:24 -25.72545 139.16274 45161 ft 543 kts 93°
2026-04-29 17:25 -25.72965 139.24633 45163 ft 542 kts 93°
2026-04-29 17:25 -25.73380 139.32984 45165 ft 542 kts 93°
2026-04-29 17:26 -25.73788 139.41293 45164 ft 542 kts 93°
2026-04-29 17:26 -25.74194 139.49649 45166 ft 542 kts 93°
2026-04-29 17:27 -25.74595 139.57998 45168 ft 543 kts 93°
2026-04-29 17:27 -25.74993 139.66391 45169 ft 544 kts 93°
2026-04-29 17:28 -25.75322 139.73409 45166 ft 543 kts 93°
2026-04-29 17:28 -25.75708 139.81736 45168 ft 543 kts 92°
2026-04-29 17:29 -25.76092 139.90111 45171 ft 543 kts 92°
2026-04-29 17:29 -25.76470 139.98470 45167 ft 542 kts 92°
2026-04-29 17:30 -25.76843 140.06824 45165 ft 542 kts 92°
2026-04-29 17:30 -25.77212 140.15200 45171 ft 547 kts 92°
2026-04-29 17:31 -25.77581 140.23699 45180 ft 555 kts 92°
2026-04-29 17:31 -25.77951 140.32309 45180 ft 561 kts 92°
2026-04-29 17:32 -25.78318 140.40978 45171 ft 564 kts 92°
2026-04-29 17:32 -25.78678 140.49628 45173 ft 564 kts 92°
2026-04-29 17:33 -25.79036 140.58326 45175 ft 564 kts 92°
2026-04-29 17:33 -25.79388 140.67005 45176 ft 563 kts 92°
2026-04-29 17:34 -25.79734 140.75687 45175 ft 563 kts 92°
2026-04-29 17:34 -25.80075 140.84357 45176 ft 562 kts 92°
2026-04-29 17:35 -25.80577 140.97370 45178 ft 562 kts 92°
2026-04-29 17:36 -25.80905 141.06030 45173 ft 562 kts 92°
2026-04-29 17:36 -25.81228 141.14690 45179 ft 561 kts 92°
2026-04-29 17:37 -25.81544 141.23308 45178 ft 561 kts 92°
2026-04-29 17:37 -25.81856 141.31966 45180 ft 561 kts 92°
2026-04-29 17:38 -25.82163 141.40617 45181 ft 560 kts 92°
2026-04-29 17:38 -25.82464 141.49252 45181 ft 560 kts 92°
2026-04-29 17:39 -25.82760 141.57897 45179 ft 560 kts 92°
2026-04-29 17:39 -25.83051 141.66527 45183 ft 560 kts 92°
2026-04-29 17:40 -25.83336 141.75156 45180 ft 559 kts 92°
2026-04-29 17:40 -25.83617 141.83796 45184 ft 559 kts 92°
2026-04-29 17:41 -25.83892 141.92420 45184 ft 559 kts 92°
2026-04-29 17:41 -25.84163 142.01046 45184 ft 559 kts 92°
2026-04-29 17:42 -25.84427 142.09660 45180 ft 558 kts 92°
2026-04-29 17:42 -25.84685 142.18213 45180 ft 558 kts 92°
2026-04-29 17:43 -25.84939 142.26819 45178 ft 557 kts 91°
2026-04-29 17:43 -25.85189 142.35424 45176 ft 557 kts 91°
2026-04-29 17:44 -25.85432 142.44020 45178 ft 556 kts 91°
2026-04-29 17:44 -25.85671 142.52610 45182 ft 556 kts 91°
2026-04-29 17:45 -25.85904 142.61188 45181 ft 556 kts 91°
2026-04-29 17:45 -25.86132 142.69758 45179 ft 555 kts 91°
2026-04-29 17:46 -25.86355 142.78327 45179 ft 555 kts 91°
2026-04-29 17:46 -25.86573 142.86889 45184 ft 555 kts 91°
2026-04-29 17:47 -25.86785 142.95444 45184 ft 554 kts 91°
2026-04-29 17:47 -25.86993 143.04007 45183 ft 554 kts 91°
2026-04-29 17:48 -25.87194 143.12500 45186 ft 554 kts 91°
2026-04-29 17:48 -25.87391 143.21049 45187 ft 553 kts 91°
2026-04-29 17:49 -25.87583 143.29592 45190 ft 553 kts 91°
2026-04-29 17:49 -25.87771 143.38123 45191 ft 553 kts 91°
2026-04-29 17:50 -25.87953 143.46673 45189 ft 553 kts 91°
2026-04-29 17:50 -25.88130 143.55206 45192 ft 553 kts 91°
2026-04-29 17:51 -25.88302 143.63744 45196 ft 553 kts 91°
2026-04-29 17:51 -25.88469 143.72284 45199 ft 553 kts 91°
2026-04-29 17:52 -25.88630 143.80761 45199 ft 553 kts 91°
2026-04-29 17:52 -25.88787 143.89292 45200 ft 552 kts 91°
2026-04-29 17:53 -25.88939 143.97820 45206 ft 552 kts 91°
2026-04-29 17:53 -25.89086 144.06378 45205 ft 553 kts 91°
2026-04-29 17:54 -25.89228 144.14903 45209 ft 552 kts 91°
2026-04-29 17:54 -25.89364 144.23383 45212 ft 552 kts 91°
2026-04-29 17:55 -25.89502 144.31912 45206 ft 552 kts 91°
2026-04-29 17:55 -25.90560 144.40348 45214 ft 551 kts 102°
2026-04-29 17:56 -25.92026 144.48707 45220 ft 552 kts 99°
2026-04-29 17:56 -25.93278 144.57118 45225 ft 552 kts 101°
2026-04-29 17:57 -25.94694 144.65507 45222 ft 552 kts 100°
2026-04-29 17:57 -25.95981 144.73923 45221 ft 552 kts 100°
2026-04-29 17:58 -25.97347 144.82305 45222 ft 551 kts 101°
2026-04-29 17:58 -25.98645 144.90662 45223 ft 552 kts 100°
2026-04-29 17:59 -25.99981 144.99066 45226 ft 552 kts 101°
2026-04-29 17:59 -26.01292 145.07467 45227 ft 552 kts 100°
2026-04-29 18:00 -26.02608 145.15874 45231 ft 552 kts 100°
2026-04-29 18:00 -26.03915 145.24278 45235 ft 552 kts 100°
2026-04-29 18:01 -26.05219 145.32692 45239 ft 552 kts 100°
2026-04-29 18:01 -26.06518 145.41106 45243 ft 552 kts 100°
2026-04-29 18:02 -26.07814 145.49537 45240 ft 552 kts 100°
2026-04-29 18:02 -26.09104 145.57959 45236 ft 552 kts 100°
2026-04-29 18:03 -26.10388 145.66373 45242 ft 552 kts 100°
2026-04-29 18:03 -26.11671 145.74817 45245 ft 553 kts 100°
2026-04-29 18:04 -26.12948 145.83262 45238 ft 553 kts 100°
2026-04-29 18:04 -26.14220 145.91702 45239 ft 553 kts 100°
2026-04-29 18:05 -26.15477 146.00079 45250 ft 553 kts 100°
2026-04-29 18:05 -26.16101 146.04255 45857 ft 538 kts 100°
2026-04-29 18:05 -26.16713 146.08353 46084 ft 534 kts 100°
2026-04-29 18:05 -26.17315 146.12391 46446 ft 526 kts 100°
2026-04-29 18:06 -26.17908 146.16378 46813 ft 519 kts 100°
2026-04-29 18:06 -26.18489 146.20297 47235 ft 509 kts 100°
2026-04-29 18:06 -26.19069 146.24208 47220 ft 514 kts 100°
2026-04-29 18:07 -26.20241 146.32137 47244 ft 523 kts 100°
2026-04-29 18:07 -26.21426 146.40196 47261 ft 531 kts 100°
2026-04-29 18:08 -26.22623 146.48359 47266 ft 537 kts 100°
2026-04-29 18:08 -26.23829 146.56628 47264 ft 542 kts 99°
2026-04-29 18:09 -26.25038 146.64940 47263 ft 546 kts 99°
2026-04-29 18:09 -26.26248 146.73306 47270 ft 549 kts 99°
2026-04-29 18:10 -26.27460 146.81715 47272 ft 550 kts 99°
2026-04-29 18:10 -26.28670 146.90143 47263 ft 550 kts 99°
2026-04-29 18:11 -26.29865 146.98508 47263 ft 549 kts 99°
2026-04-29 18:11 -26.31059 147.06898 47265 ft 548 kts 99°
2026-04-29 18:12 -26.32247 147.15288 47267 ft 547 kts 99°
2026-04-29 18:12 -26.33430 147.23671 47278 ft 547 kts 99°
2026-04-29 18:13 -26.34608 147.32056 47279 ft 547 kts 99°
2026-04-29 18:13 -26.35777 147.40420 47284 ft 547 kts 99°
2026-04-29 18:14 -26.36938 147.48757 47282 ft 547 kts 99°
2026-04-29 18:14 -26.38092 147.57077 47285 ft 547 kts 99°
2026-04-29 18:15 -26.39060 147.64094 47288 ft 547 kts 99°
2026-04-29 18:15 -26.40210 147.72455 47296 ft 547 kts 99°
2026-04-29 18:16 -26.41356 147.80828 47295 ft 547 kts 99°
2026-04-29 18:16 -26.42501 147.89227 47301 ft 547 kts 99°
2026-04-29 18:17 -26.43639 147.97616 47299 ft 547 kts 99°
2026-04-29 18:17 -26.44773 148.06012 47301 ft 547 kts 99°
2026-04-29 18:18 -26.45896 148.14363 47299 ft 547 kts 99°
2026-04-29 18:18 -26.47021 148.22767 47304 ft 547 kts 99°
2026-04-29 18:19 -26.48143 148.31182 47300 ft 548 kts 99°
2026-04-29 18:19 -26.49257 148.39587 47302 ft 548 kts 99°
2026-04-29 18:20 -26.50368 148.48003 47302 ft 548 kts 99°
2026-04-29 18:20 -26.51475 148.56427 47302 ft 548 kts 99°
2026-04-29 18:21 -26.52576 148.64843 47308 ft 548 kts 99°
2026-04-29 18:21 -26.53672 148.73261 47305 ft 548 kts 99°
2026-04-29 18:22 -26.54975 148.81642 47293 ft 546 kts 104°
2026-04-29 18:22 -26.56746 148.89889 47300 ft 546 kts 104°
2026-04-29 18:23 -26.58392 148.98170 47308 ft 546 kts 104°
2026-04-29 18:23 -26.60105 149.06438 47308 ft 546 kts 105°
2026-04-29 18:24 -26.61778 149.14727 47308 ft 546 kts 104°
2026-04-29 18:24 -26.63462 149.23015 47312 ft 546 kts 104°
2026-04-29 18:25 -26.65136 149.31301 47309 ft 547 kts 104°
2026-04-29 18:25 -26.66793 149.39536 47308 ft 546 kts 104°
2026-04-29 18:26 -26.68460 149.47827 47306 ft 547 kts 104°
2026-04-29 18:26 -26.70118 149.56124 47306 ft 546 kts 104°
2026-04-29 18:27 -26.71775 149.64419 47302 ft 546 kts 104°
2026-04-29 18:27 -26.73423 149.72718 47306 ft 546 kts 104°
2026-04-29 18:28 -26.75069 149.81016 47310 ft 546 kts 104°
2026-04-29 18:28 -26.76709 149.89320 47311 ft 546 kts 104°
2026-04-29 18:29 -26.78346 149.97634 47309 ft 546 kts 104°
2026-04-29 18:29 -26.79975 150.05932 47312 ft 546 kts 104°
2026-04-29 18:30 -26.81599 150.14236 47316 ft 546 kts 104°
2026-04-29 18:30 -26.83218 150.22537 47311 ft 546 kts 104°
2026-04-29 18:31 -26.84831 150.30839 47311 ft 546 kts 104°
2026-04-29 18:31 -26.86431 150.39096 47306 ft 546 kts 104°
2026-04-29 18:32 -26.88032 150.47392 47306 ft 545 kts 104°
2026-04-29 18:32 -26.90425 150.59842 47306 ft 545 kts 104°
2026-04-29 18:33 -26.92014 150.68146 47307 ft 545 kts 104°
2026-04-29 18:33 -26.93600 150.76459 47305 ft 545 kts 104°
2026-04-29 18:34 -26.94915 150.83370 47309 ft 545 kts 104°
2026-04-29 18:34 -26.96754 150.93072 47307 ft 544 kts 104°
2026-04-29 18:35 -26.98321 151.01370 47312 ft 544 kts 104°
2026-04-29 18:35 -26.99884 151.09674 47308 ft 544 kts 104°
2026-04-29 18:36 -27.01439 151.17963 47305 ft 544 kts 104°
2026-04-29 18:36 -27.02990 151.26261 47309 ft 543 kts 104°
2026-04-29 18:37 -27.04537 151.34562 47307 ft 543 kts 104°
2026-04-29 18:37 -27.06068 151.42807 47312 ft 543 kts 104°
2026-04-29 18:38 -27.07602 151.51099 47307 ft 543 kts 104°
2026-04-29 18:38 -27.09133 151.59401 47314 ft 543 kts 104°
2026-04-29 18:39 -27.10658 151.67702 47310 ft 543 kts 104°
2026-04-29 18:39 -27.12179 151.76008 47316 ft 543 kts 104°
2026-04-29 18:40 -27.13696 151.84321 47318 ft 543 kts 104°
2026-04-29 18:40 -27.15205 151.92620 47318 ft 543 kts 104°
2026-04-29 18:41 -27.18201 152.09178 47319 ft 542 kts 104°
2026-04-29 18:42 -27.19694 152.17478 47317 ft 542 kts 104°
2026-04-29 18:42 -27.21195 152.25849 47319 ft 542 kts 104°
2026-04-29 18:43 -27.22669 152.34097 47319 ft 542 kts 104°
2026-04-29 18:43 -27.24147 152.42400 47309 ft 542 kts 104°
2026-04-29 18:44 -27.25612 152.50704 47316 ft 535 kts 104°
2026-04-29 18:44 -27.26867 152.57853 47295 ft 515 kts 104°
2026-04-29 18:45 -27.28250 152.65694 47298 ft 512 kts 104°
2026-04-29 18:45 -27.29636 152.73629 47308 ft 520 kts 104°
2026-04-29 18:46 -27.30331 152.77620 47056 ft 518 kts 105°
2026-04-29 18:46 -27.31025 152.81600 46316 ft 517 kts 104°
2026-04-29 18:46 -27.31656 152.85250 46287 ft 498 kts 104°
2026-04-29 18:46 -27.32305 152.89007 46017 ft 484 kts 105°
2026-04-29 18:47 -27.32940 152.92645 45241 ft 484 kts 105°
2026-04-29 18:47 -27.33591 152.96367 44297 ft 484 kts 105°
2026-04-29 18:47 -27.34230 153.00080 43323 ft 485 kts 104°
2026-04-29 18:47 -27.34869 153.03812 42335 ft 486 kts 104°
2026-04-29 18:48 -27.35509 153.07531 41842 ft 481 kts 104°
2026-04-29 18:48 -27.36183 153.11216 41172 ft 480 kts 107°
2026-04-29 18:48 -27.37462 153.14648 40513 ft 473 kts 124°
2026-04-29 18:48 -27.39403 153.17580 39940 ft 468 kts 134°
2026-04-29 18:49 -27.41554 153.20345 39342 ft 473 kts 135°
2026-04-29 18:49 -27.43752 153.23129 38659 ft 479 kts 135°
2026-04-29 18:49 -27.45935 153.25958 38023 ft 480 kts 134°
2026-04-29 18:49 -27.48114 153.28821 37385 ft 480 kts 134°
2026-04-29 18:50 -27.50302 153.31665 36733 ft 481 kts 134°
2026-04-29 18:50 -27.52497 153.34490 36019 ft 475 kts 134°
2026-04-29 18:50 -27.54657 153.37312 34716 ft 477 kts 133°
2026-04-29 18:50 -27.56805 153.40182 33260 ft 480 kts 133°
2026-04-29 18:51 -27.58771 153.42806 31706 ft 470 kts 133°
2026-04-29 18:51 -27.60899 153.45605 29167 ft 473 kts 133°
2026-04-29 18:51 -27.62963 153.48306 27378 ft 461 kts 133°
2026-04-29 18:51 -27.64979 153.50978 25663 ft 445 kts 132°
2026-04-29 18:52 -27.66945 153.53598 23985 ft 432 kts 132°
2026-04-29 18:52 -27.68863 153.56136 22196 ft 417 kts 132°
2026-04-29 18:52 -27.70708 153.58571 20578 ft 399 kts 131°
2026-04-29 18:52 -27.72467 153.60900 19041 ft 383 kts 131°
2026-04-29 18:53 -27.74161 153.63151 17339 ft 368 kts 130°
2026-04-29 18:53 -27.75795 153.65322 15525 ft 360 kts 130°
2026-04-29 18:53 -27.77409 153.67460 13823 ft 353 kts 130°
2026-04-29 18:53 -27.79227 153.69210 12402 ft 342 kts 149°
2026-04-29 18:54 -27.81514 153.69783 11688 ft 336 kts 177°
2026-04-29 18:54 -27.83699 153.69066 11280 ft 325 kts 206°
2026-04-29 18:54 -27.85238 153.67304 11001 ft 313 kts 236°
2026-04-29 18:54 -27.85830 153.64968 10475 ft 311 kts 266°
2026-04-29 18:55 -27.85456 153.62576 9833 ft 309 kts 287°
2026-04-29 18:55 -27.84737 153.60309 9259 ft 305 kts 291°
2026-04-29 18:55 -27.83992 153.58116 8363 ft 296 kts 291°
2026-04-29 18:55 -27.83238 153.55931 7305 ft 297 kts 291°
2026-04-29 18:56 -27.82492 153.53785 6363 ft 291 kts 291°
2026-04-29 18:56 -27.82057 153.51589 5258 ft 290 kts 266°
2026-04-29 18:56 -27.82681 153.49595 4881 ft 261 kts 231°
2026-04-29 18:56 -27.83895 153.48172 4983 ft 249 kts 212°
2026-04-29 18:57 -27.85368 153.47335 5095 ft 231 kts 193°
2026-04-29 18:57 -27.86403 153.47034 5198 ft 234 kts 188°
2026-04-29 18:58 -27.87629 153.46692 5289 ft 240 kts 189°
2026-04-29 18:58 -27.89231 153.46143 5038 ft 237 kts 193°
2026-04-29 18:58 -27.90697 153.45586 4740 ft 231 kts 193°
2026-04-29 18:58 -27.92239 153.45025 4428 ft 225 kts 192°
2026-04-29 18:59 -27.93697 153.44510 4395 ft 211 kts 192°
2026-04-29 18:59 -27.95063 153.44025 4473 ft 206 kts 191°
2026-04-29 18:59 -27.96453 153.43535 4489 ft 211 kts 192°
2026-04-29 18:59 -27.97861 153.43032 4486 ft 213 kts 192°
2026-04-29 19:00 -27.99276 153.42526 4492 ft 213 kts 192°
2026-04-29 19:00 -28.00222 153.42185 4479 ft 209 kts 192°
2026-04-29 19:00 -28.01550 153.41699 4236 ft 190 kts 192°
2026-04-29 19:00 -28.02799 153.41732 3538 ft 182 kts 155°
2026-04-29 19:01 -28.03811 153.42494 3135 ft 171 kts 146°
2026-04-29 19:01 -28.04785 153.43139 2921 ft 156 kts 149°
2026-04-29 19:01 -28.05706 153.43728 2476 ft 152 kts 149°
2026-04-29 19:01 -28.06593 153.44294 2492 ft 145 kts 150°
2026-04-29 19:02 -28.07492 153.44873 2421 ft 147 kts 149°
2026-04-29 19:02 -28.08316 153.45412 2204 ft 128 kts 149°
2026-04-29 19:02 -28.09076 153.45912 1906 ft 125 kts 149°
2026-04-29 19:02 -28.09812 153.46374 1534 ft 125 kts 150°
2026-04-29 19:03 -28.10544 153.46855 1229 ft 119 kts 150°
2026-04-29 19:03 -28.11255 153.47324 936 ft 117 kts 152°
2026-04-29 19:03 -28.11941 153.47763 836 ft 112 kts 155°
2026-04-29 19:03 -28.12622 153.48171 653 ft 110 kts 154°
2026-04-29 19:04 -28.13315 153.48602 524 ft 115 kts 152°
2026-04-29 19:04 -28.14023 153.49048 420 ft 118 kts 154°
2026-04-29 19:04 -28.14747 153.49512 244 ft 120 kts 154°
2026-04-29 19:04 -28.15456 153.49955 86 ft 118 kts 155°
2026-04-29 19:05 -28.16135 153.50382 27 ft 103 kts 155°
2026-04-29 19:05 -28.16648 153.50705 23 ft 63 kts 150°
2026-04-29 19:05 -28.16915 153.50875 24 ft 21 kts 150°
2026-04-29 19:05 -28.16926 153.50986 21 ft 15 kts 61°
2026-04-29 19:06 -28.16877 153.51088 20 ft 15 kts 60°
2026-04-29 19:06 -28.16823 153.51161 20 ft 10 kts
2026-04-29 19:06 -28.16646 153.51062 20 ft 17 kts 330°
2026-04-29 19:07 -28.16548 153.51001 20 ft 16 kts 330°
2026-04-29 19:07 -28.16492 153.50964 23 ft 11 kts 331°
2026-04-29 19:07 -28.16482 153.50958 20 ft 0 kts 332°
2026-04-29 19:08 -28.16473 153.50944 20 ft 7 kts 294°
2026-04-29 19:08 -28.16487 153.50879 23 ft 9 kts 239°
2026-04-29 19:09 -28.16471 153.50808 23 ft 13 kts 329°
2026-04-29 19:09 -28.16394 153.50757 24 ft 13 kts 330°
2026-04-29 19:09 -28.16315 153.50708 22 ft 13 kts 348°
2026-04-29 19:09 -28.16266 153.50777 25 ft 13 kts 69°
2026-04-29 19:10 -28.16236 153.50867 24 ft 12 kts 69°
2026-04-29 19:10 -28.16205 153.50955 22 ft 12 kts 60°
2026-04-29 19:10 -28.16177 153.50956 22 ft 5 kts 319°
2026-04-29 19:10 -28.16143 153.50918 23 ft 7 kts 315°
2026-04-29 19:11 -28.16131 153.50879 25 ft 4 kts 248°
2026-04-29 19:11 -28.16145 153.50862 24 ft 3 kts 240°
2026-04-29 19:11 -28.16138 153.50851 25 ft 1 kts 352°
2026-04-29 19:11 -28.16124 153.50859 23 ft 2 kts 37°
2026-04-29 19:12 -28.16123 153.50861 23 ft 0 kts 43°